Scio, NY

1:20 PM EST on December 07, 2016 (GMT -0500)
Wellsville Municipal-Tarantine

Weather History for KELZ - December, 2012

Change the Weather History Date:

Saturday, December 29, 2012

  Actual Average (KBFD) Record (KBFD)
Temperature  
Mean Temperature 22 °F 22 °F  
Max Temperature 25 °F 30 °F 57 °F (1984)
Min Temperature 19 °F 15 °F -10 °F (1993)
Degree Days  
Heating Degree Days 43 37  
Month to date heating degree days 989  
Since 1 July heating degree days 2824  
Cooling Degree Days 0 0  
Month to date cooling degree days 0  
Year to date cooling degree days 193  
Moisture  
Dew Point 20 °F    
Average Humidity 87    
Maximum Humidity 93    
Minimum Humidity 80    
Precipitation  
Precipitation 0.37 in 0.10 in 0.51 in (1991)
Month to date precipitation 3.20  
Year to date precipitation 44.26  
Sea Level Pressure  
Sea Level Pressure 29.70 in    
Wind  
Wind Speed 6 mph (East)    
Max Wind Speed 18 mph    
Max Gust Speed 29 mph    
Visibility 2 miles    
Events Fog , Snow    
T = Trace of Precipitation, MM = Missing Value Source: NWS Daily Summary

Daily Weather History Graph

Daily Weather History Graph

Search for Another Location

Airport or City:

Trip Planner

Search our weather history database for the weather conditions in past years. The results will help you decide how hot, cold, wet, or windy it might be!

Date:

Astronomy

Dec. 29, 2012 Rise Set
Actual Time 7:39 AM EST 4:48 PM EST
Civil Twilight 7:08 AM EST 5:20 PM EST
Nautical Twilight 6:33 AM EST 5:55 PM EST
Astronomical Twilight 5:59 AM EST 6:29 PM EST
Moon 6:21 PM EST (12/29) 8:10 AM EST (12/29)
Length of Visible Light 10h 12m
Length of Day
9h 08m
Full, 98% of the Moon is Illuminated
Dec 29
Full
Jan 4
Last Quarter
Jan 11
New
Jan 18
First Quarter
Jan 26
Full

Hourly Weather History & Observations

Time (EST) Temp. Windchill Dew Point Humidity Pressure Visibility Wind Dir Wind Speed Gust Speed Precip Events Conditions
12:56 AM 19.9 °F 13.4 °F 18.0 °F 92% 30.01 in 6.0 mi SE 4.6 mph - N/A   Overcast
1:56 AM 19.9 °F 13.4 °F 18.0 °F 92% 29.97 in 3.0 mi East 4.6 mph - N/A   Overcast
2:56 AM 21.0 °F 13.4 °F 18.0 °F 88% 29.94 in 6.0 mi ESE 5.8 mph - N/A   Overcast
3:32 AM 21.2 °F 13.6 °F 17.6 °F 86% 29.85 in 8.0 mi SE 5.8 mph - N/A   Overcast
3:56 AM 21.9 °F 15.7 °F 19.0 °F 89% 29.93 in 8.0 mi SE 4.6 mph - N/A   Overcast
4:32 AM 21.2 °F 12.6 °F 19.4 °F 93% 29.84 in 1.8 mi SSE 6.9 mph - 0.00 in Snow Light Snow
4:37 AM 21.2 °F 12.6 °F 19.4 °F 93% 29.83 in 1.2 mi SSE 6.9 mph - 0.00 in Snow Light Snow
4:56 AM 21.9 °F 17.2 °F 19.0 °F 89% 29.92 in 1.5 mi SE 3.5 mph - 0.00 in Snow Light Snow
5:28 AM 21.2 °F 13.6 °F 19.4 °F 93% 29.80 in 1.0 mi ESE 5.8 mph - 0.02 in Snow Light Snow
5:56 AM 21.9 °F 14.5 °F 19.0 °F 89% 29.86 in 1.0 mi East 5.8 mph - 0.04 in Snow Light Snow
6:30 AM 21.2 °F 14.9 °F 19.4 °F 93% 29.73 in 1.0 mi East 4.6 mph - 0.02 in Snow Light Snow
6:38 AM 21.2 °F 13.6 °F 19.4 °F 93% 29.72 in 1.0 mi East 5.8 mph - 0.02 in Snow Light Snow
6:50 AM 21.2 °F 13.6 °F 19.4 °F 93% 29.72 in 0.8 mi East 5.8 mph - 0.03 in Snow Light Snow
6:51 AM 21.9 °F 14.5 °F 19.0 °F 89% 29.81 in 0.8 mi East 5.8 mph - 0.03 in Snow Light Snow
7:05 AM 21.2 °F 14.9 °F 19.4 °F 93% 29.72 in 0.5 mi ESE 4.6 mph - 0.03 in Fog , Snow Snow
7:21 AM 23.0 °F 14.7 °F 19.4 °F 86% 29.72 in 1.0 mi ESE 6.9 mph - 0.04 in Snow Light Snow
7:36 AM 23.0 °F 13.9 °F 19.4 °F 86% 29.71 in 1.2 mi ESE 8.1 mph - 0.05 in Snow Light Snow
7:54 AM 21.2 °F 11.7 °F 19.4 °F 93% 29.70 in 0.8 mi ESE 8.1 mph - 0.06 in Snow Light Snow
7:56 AM 21.9 °F 11.7 °F 19.0 °F 89% 29.79 in 0.5 mi ESE 9.2 mph - 0.07 in Fog , Snow Snow
8:05 AM 21.2 °F 11.7 °F 19.4 °F 93% 29.70 in 0.2 mi ESE 8.1 mph - 0.01 in Fog , Snow Snow
8:14 AM 21.2 °F 12.6 °F 19.4 °F 93% 29.69 in 0.2 mi ESE 6.9 mph - 0.02 in Fog , Snow Snow
8:18 AM 21.2 °F 13.6 °F 19.4 °F 93% 29.69 in 0.5 mi ESE 5.8 mph - 0.02 in Fog , Snow Snow
8:52 AM 21.2 °F 12.6 °F 19.4 °F 93% 29.69 in 0.2 mi SE 6.9 mph - 0.05 in Fog , Snow Snow
8:56 AM 21.9 °F 13.4 °F 19.9 °F 92% 29.78 in 0.2 mi SE 6.9 mph - 0.05 in Fog , Snow Snow
9:05 AM 21.2 °F 11.7 °F 19.4 °F 93% 29.68 in 0.2 mi SE 8.1 mph - 0.01 in Fog , Snow Snow
9:11 AM 21.2 °F 13.6 °F 19.4 °F 93% 29.68 in 0.5 mi ESE 5.8 mph - 0.02 in Fog , Snow Snow
9:30 AM 23.0 °F 14.7 °F 19.4 °F 86% 29.67 in 0.2 mi ESE 6.9 mph - 0.03 in Fog , Snow Snow
9:40 AM 23.0 °F 17.0 °F 19.4 °F 86% 29.67 in 0.5 mi ESE 4.6 mph - 0.04 in Fog , Snow Snow
9:53 AM 23.0 °F 15.8 °F 19.4 °F 86% 29.66 in 0.8 mi East 5.8 mph - 0.04 in Snow Light Snow
9:56 AM 23.0 °F 15.8 °F 19.9 °F 88% 29.76 in 0.8 mi East 5.8 mph - 0.05 in Snow Light Snow
10:20 AM 23.0 °F 13.9 °F 19.4 °F 86% 29.66 in 0.2 mi ESE 8.1 mph - 0.01 in Fog , Snow Heavy Snow
10:35 AM 23.0 °F 15.8 °F 19.4 °F 86% 29.65 in 0.2 mi ESE 5.8 mph - 0.03 in Fog , Snow Heavy Snow
10:56 AM 23.0 °F 15.8 °F 19.9 °F 88% 29.73 in 0.2 mi ESE 5.8 mph - 0.06 in Fog , Snow Heavy Snow
11:26 AM 24.8 °F 17.9 °F 21.2 °F 86% 29.61 in 0.5 mi ESE 5.8 mph - 0.03 in Fog , Snow Snow
11:45 AM 24.8 °F 20.5 °F 21.2 °F 86% 29.60 in 1.0 mi ESE 3.5 mph - 0.03 in Snow Light Snow
11:51 AM 24.8 °F 20.5 °F 21.2 °F 86% 29.60 in 0.8 mi ESE 3.5 mph - 0.03 in Snow Light Snow
11:52 AM 24.1 °F 19.7 °F 21.9 °F 91% 29.68 in 0.8 mi ESE 3.5 mph - 0.03 in Snow Light Snow
12:18 PM 24.8 °F 20.5 °F 21.2 °F 86% 29.58 in 1.0 mi East 3.5 mph - 0.01 in Snow Light Snow
12:28 PM 24.8 °F 20.5 °F 21.2 °F 86% 29.58 in 0.8 mi East 3.5 mph - 0.01 in Snow Light Snow
12:54 PM 24.8 °F 20.5 °F 21.2 °F 86% 29.56 in 0.5 mi East 3.5 mph - 0.03 in Fog , Snow Snow
1:22 PM 24.8 °F - 21.2 °F 86% 29.55 in 0.8 mi Calm Calm - 0.00 in Snow Light Snow
1:32 PM 24.8 °F - 21.2 °F 86% 29.55 in 1.0 mi Calm Calm - 0.01 in Snow Light Snow
1:49 PM 24.8 °F - 21.2 °F 86% 29.55 in 1.0 mi Calm Calm - 0.01 in Snow Light Snow
1:56 PM 25.0 °F - 21.9 °F 88% 29.64 in 1.0 mi Calm Calm - 0.01 in Snow Light Snow
2:06 PM 24.8 °F 20.5 °F 21.2 °F 86% 29.55 in 0.8 mi North 3.5 mph - 0.00 in Snow Light Snow
2:16 PM 24.8 °F - 21.2 °F 86% 29.56 in 0.8 mi Calm Calm - 0.01 in Snow Light Snow
2:27 PM 24.8 °F 20.5 °F 21.2 °F 86% 29.55 in 0.8 mi North 3.5 mph - 0.01 in Snow Light Snow
2:30 PM 24.8 °F - 21.2 °F 86% 29.55 in 1.0 mi Calm Calm - 0.01 in Snow Light Snow
2:48 PM 24.8 °F 19.1 °F 21.2 °F 86% 29.56 in 1.0 mi NNW 4.6 mph - 0.02 in Snow Light Snow
2:56 PM 25.0 °F 19.3 °F 21.0 °F 85% 29.65 in 1.2 mi NNW 4.6 mph - 0.02 in Snow Light Snow
3:05 PM 24.8 °F 17.9 °F 21.2 °F 86% 29.56 in 1.8 mi NNW 5.8 mph - 0.00 in Snow Light Snow
3:56 PM 25.0 °F 17.1 °F 21.0 °F 85% 29.65 in 1.2 mi NNW 6.9 mph - 0.00 in Snow Light Snow
4:09 PM 24.8 °F 17.9 °F 21.2 °F 86% 29.56 in 1.5 mi NNW 5.8 mph - 0.00 in Snow Light Snow
4:29 PM 24.8 °F 14.0 °F 19.4 °F 80% 29.57 in 3.0 mi NNW 11.5 mph - 0.00 in Snow Light Snow
4:56 PM 24.1 °F 14.4 °F 19.9 °F 84% 29.67 in 6.0 mi NNW 9.2 mph - 0.00 in Snow Light Snow
5:03 PM 24.8 °F 15.3 °F 19.4 °F 80% 29.59 in 5.0 mi NNW 9.2 mph - 0.00 in Snow Light Snow
5:07 PM 24.8 °F 15.3 °F 19.4 °F 80% 29.59 in 5.0 mi NNW 9.2 mph - 0.00 in Snow Light Snow
5:56 PM 24.1 °F 12.0 °F 19.9 °F 84% 29.70 in 9.0 mi NW 13.8 mph - 0.00 in   Overcast
6:56 PM 24.1 °F 12.0 °F 19.9 °F 84% 29.73 in 4.0 mi NW 13.8 mph 23.0 mph 0.00 in Snow Light Snow
7:33 PM 24.8 °F 13.4 °F 19.4 °F 80% 29.66 in 2.5 mi NW 12.7 mph - 0.00 in Snow Light Snow
7:48 PM 24.8 °F 12.4 °F 19.4 °F 80% 29.66 in 3.0 mi NW 15.0 mph 24.2 mph 0.00 in Snow Light Snow
7:56 PM 24.1 °F 11.0 °F 19.0 °F 81% 29.76 in 3.0 mi NNW 16.1 mph 21.9 mph 0.00 in Snow Light Snow
8:29 PM 23.0 °F 11.1 °F 19.4 °F 86% 29.68 in 4.0 mi NW 12.7 mph 23.0 mph 0.01 in Snow Light Snow
8:39 PM 23.0 °F 10.6 °F 19.4 °F 86% 29.68 in 5.0 mi NW 13.8 mph - 0.01 in Snow Light Snow
8:56 PM 23.0 °F 9.6 °F 19.0 °F 85% 29.77 in 10.0 mi NW 16.1 mph 21.9 mph 0.01 in   Overcast
9:56 PM 23.0 °F 9.6 °F 18.0 °F 81% 29.80 in 10.0 mi NW 16.1 mph 23.0 mph 0.00 in   Overcast
10:28 PM 21.2 °F 6.4 °F 17.6 °F 86% 29.73 in 10.0 mi NW 18.4 mph 28.8 mph N/A   Overcast
10:51 PM 21.2 °F 8.3 °F 17.6 °F 86% 29.73 in 9.0 mi WNW 13.8 mph - 0.00 in Snow Light Snow
10:56 PM 21.9 °F 9.2 °F 17.1 °F 82% 29.83 in 8.0 mi NW 13.8 mph - 0.00 in Snow Light Snow
11:56 PM 21.9 °F 8.7 °F 17.1 °F 82% 29.84 in 10.0 mi NW 15.0 mph 19.6 mph 0.00 in   Overcast